Location: Göttingen
(51.5413°N, 9.9158°E)
Time: 22:09:04
(UTC+02:00)

First-Move - Visible Passes

Search period start: 26 June 2022 00:00
Search period end: 06 July 2022 00:00
Orbit: 571 x 660 km, 97.6° (Epoch: 26 June)

Date Brightness Start Highest point End Pass type
(mag) Time Alt. Az. Time Alt. Az. Time Alt. Az.
28 Jun ? 03:58:16 10° ENE 03:59:10 11° E 04:00:05 10° E visible
29 Jun ? 04:12:47 10° NE 04:15:22 15° E 04:17:56 10° ESE visible
04 Jul ? 03:57:41 10° ENE 03:58:52 11° E 04:00:03 10° E visible
05 Jul ? 04:12:20 10° NE 04:15:01 15° E 04:17:42 10° SE visible
